Location: ???? ????
(41.4149°N, 22.8816°E)
Time: 15:00:41
(UTC+00:00)

BREEZE-M DEB (TANK) - Pass Details

Date: 14 July 2020
Orbit: 426 x 13239 km, 46.0° (Epoch: 03 August)

Event Time Altitude Azimuth Distance (km) Brightness Sun altitude
Rises 00:11:23 0° 272° (W) 5,550 7.7 -23.1°
Reaches altitude 10° 00:16:28 10° 277° (W) 3,291 6.6 -22.7°
Maximum altitude 00:22:37 46° 351° (N) 832 4.0 -22.1°
Drops below altitude 10° 00:25:36 10° 69° (ENE) 1,607 5.8 -21.9°
Sets 00:27:16 0° 76° (ENE) 2,388 6.7 -21.7°
